Location: Kuffner-Sternwarte
(48.2130°N, 16.2960°E)
Time: 21:33:07
(UTC+02:00)

COROT - Pass Details

Date: 24 May 2018
Orbit: 599 x 890 km, 90.0° (Epoch: 15 August)

Event Time Altitude Azimuth Distance (km) Brightness Sun altitude
Rises 22:54:58 0° 349° (N) 3,078 10.6 -16.1°
Reaches altitude 10° 22:57:33 10° 336° (NNW) 2,205 9.7 -16.3°
Maximum altitude 23:01:21 23° 284° (WNW) 1,555 8.1 -16.6°
Drops below altitude 10° 23:05:22 10° 234° (SW) 2,341 8.4 -16.9°
Sets 23:08:13 0° 220° (SW) 3,317 9.1 -17.1°
